Location: Proctor
(47.8934°N, 114.3048°W)
Time: 06:58:05
(UTC+00:00)

ISS - Pass Details

Date: 24 May 2024
Orbit: 409 x 421 km, 51.6° (Epoch: 13 June)

Event Time Altitude Azimuth Distance (km) Brightness Sun altitude
Rises 05:38:47 0° 289° (WNW) 2,373 0.8 -16.5°
Reaches altitude 10° 05:41:07 10° 275° (W) 1,502 -0.5 -16.7°
Maximum altitude 05:43:56 25° 219° (SW) 898 -2.3 -16.9°
Enters shadow 05:44:00 24° 217° (SW) 899 -2.3 -16.9°
